William P Hobby Airport
KHOU : now visible

Airfield :











YOU CAN JOIN US ON...

 
LOGIN :

Register | Disclaimer

   EN    FR    IT 

 









Legend :    VFR   Marginal VFR   IFR   Intensive IFR   Very Intensive IFR
Visi :
Ceiling :
>= 8 km
>= 3000ft
5 to 8 km
1000 to 3000 ft
1500m to 5 km
500 to 1000 ft
800 to 1500m
200 to 500 ft
< 800m
< 200 ft
Symbols :   Thunderstorms  Fog  Heavy snow  Heavy precipitations  Wind > 20 kt






- Airport Elevation : 46 ft
- IATA code : HOU


KHOU - William P Hobby

CURRENT METAR :
  • 270253Z 10006KT 10SM OVC029 21/14 A2983 RMK AO2 SLP107 T02110144 51012

EXPIRED METARs :
  • 270153Z 07008KT 10SM OVC029 22/14 A2983 RMK AO2 SLP104 T02170139
  • 270144Z 08007KT 10SM OVC029 22/13 A2982 RMK AO2 T02170133
  • 270053Z 10005KT 10SM SCT029 BKN050 BKN250 21/12 A2981 RMK AO2 SLP098 T02110117

TAF KHOU
Valid from the 27 at 02:00 until the 28 at 00:00 UTC


270156Z 2702/2724 07008KT P6SM OVC029
FM271100 35011KT P6SM SCT025 SCT250
FM271600 32013KT P6SM SCT250
FM272000 36015G25KT P6SM FEW250
KZHU FIR / North America



MET'MAP, your aeronautical weather chart ! - Copyright ORBIFLY December 2007 - Disclaimer

ORBIFLY MET'MAP TEAM :

Programming & Development : Alexandra Zaïnal
Concept & original design : Baudouin d'Aumeries
Assistance for programming : Marc-Olivier Méhu
Technical & hardware support : Manuel Goepfert

Contact : metmap@orbifly.com




SOURCES & CREDITS :

   NOAA       Earth
Advisory